DW3147 Weather Reports


time (UTC)temp
C
wind
direction
speed
KPH
gust
KPH
rain 1hr
cm
rain 24hr
cm
rain mn
cm
humidity
%
barometer
mb
20260504172035 22 210 3.2 11.3 0.00 0.00 0.00 50 1009.8
20260504171035 21 212 0.0 8.0 0.00 0.00 0.00 51 1009.8
20260504151034 15 80 0.0 4.8 0.00 0.00 0.00 73 1009.8
20260504081033 17 345 0.0 0.0 0.00 0.00 0.00 56 1008.7
20260504045033 21 28 3.2 12.9 0.00 0.00 0.00 46 1008.4
20260504044032 21 54 4.8 17.7 0.00 0.00 0.00 46 1008.4
20260504043031 21 26 1.6 12.9 0.00 0.00 0.00 45 1008.3
20260504042032 22 23 3.2 17.7 0.00 0.00 0.00 42 1008.4
20260504035031 21 333 3.2 14.5 0.00 0.00 0.00 45 1008.2
20260504034031 21 360 4.8 8.0 0.00 0.00 0.00 44 1008.2
20260504032032 23 341 4.8 8.0 0.00 0.00 0.00 39 1008.4
20260504031031 23 331 4.8 8.0 0.00 0.00 0.00 37 1008.5
20260504025031 25 360 3.2 9.7 0.00 0.00 0.00 33 1008.6
20260504024032 25 331 4.8 12.9 0.00 0.00 0.00 31 1008.6
20260504021031 26 270 1.6 8.0 0.00 0.00 0.00 30 1008.7
20260504020101 26 315 6.4 9.7 0.00 0.00 0.00 30 1008.8
20260504015032 26 320 3.2 8.0 0.00 0.00 0.00 30 1008.9
20260504014030 26 286 0.0 9.7 0.00 0.00 0.00 31 1009.0
20260504013031 27 341 1.6 14.5 0.00 0.00 0.00 30 1009.1
20260504012031 27 264 6.4 12.9 0.00 0.00 0.00 28 1009.3
20260504011030 27 259 0.0 11.3 0.00 0.00 0.00 28 1009.4
20260504010101 27 275 4.8 14.5 0.00 0.00 0.00 29 1009.5
20260504005030 27 235 4.8 14.5 0.00 0.00 0.00 30 1009.6
20260504004030 27 233 3.2 11.3 0.00 0.00 0.00 29 1009.8
20260504003031 27 286 3.2 11.3 0.00 0.00 0.00 33 1009.9
20260504001031 27 294 4.8 9.7 0.00 0.00 0.00 32 1010.0
20260503235031 27 278 3.2 9.7 0.00 0.00 0.00 32 1010.3
20260503234030 27 224 4.8 11.3 0.00 0.00 0.00 31 1010.4
20260503233030 27 272 11.3 17.7 0.00 0.00 0.00 28 1010.4
20260503232030 27 290 6.4 16.1 0.00 0.00 0.00 28 1010.6
20260503231030 27 259 6.4 16.1 0.00 0.00 0.00 29 1010.8
20260503230100 27 243 4.8 16.1 0.00 0.00 0.00 32 1011.0
20260503225031 26 320 3.2 16.1 0.00 0.00 0.00 31 1011.1
20260503224030 26 291 4.8 12.9 0.00 0.00 0.00 33 1011.2
20260503223031 26 277 3.2 14.5 0.00 0.00 0.00 32 1011.3
20260503222030 26 279 6.4 14.5 0.00 0.00 0.00 33 1011.5
20260503221030 26 222 9.7 12.9 0.00 0.00 0.00 35 1011.6
20260503220100 26 279 9.7 11.3 0.00 0.00 0.00 36 1011.7
20260503215031 25 296 4.8 14.5 0.00 0.00 0.00 36 1011.9
20260503214030 25 315 6.4 12.9 0.00 0.00 0.00 37 1012.0
20260503213030 25 265 4.8 16.1 0.00 0.00 0.00 40 1012.1
20260503212100 25 279 6.4 14.5 0.00 0.00 0.00 38 1012.1
20260503211100 25 299 4.8 12.9 0.00 0.00 0.00 39 1012.2
20260503210100 25 309 8.0 12.9 0.00 0.00 0.00 41 1012.3
20260503205059 25 269 12.9 16.1 0.00 0.00 0.00 43 1012.5
20260503204100 24 256 4.8 12.9 0.00 0.00 0.00 43 1012.6
20260503203059 24 259 11.3 12.9 0.00 0.00 0.00 44 1012.6
20260503202100 23 274 4.8 11.3 0.00 0.00 0.00 44 1012.8
20260503201059 24 232 6.4 9.7 0.00 0.00 0.00 48 1012.8
20260503195100 23 270 1.6 11.3 0.00 0.00 0.00 50 1013.1
20260503194100 23 271 4.8 12.9 0.00 0.00 0.00 50 1013.2
20260503192029 23 263 6.4 8.0 0.00 0.00 0.00 51 1013.4
20260503191059 23 276 6.4 9.7 0.00 0.00 0.00 49 1013.5
20260503190059 22 336 8.0 11.3 0.00 0.00 0.00 50 1013.6
20260503183100 22 270 4.8 6.4 0.00 0.00 0.00 52 1013.8
20260503180059 21 150 1.6 11.3 0.00 0.00 0.00 51 1013.9
20260503175059 21 141 3.2 9.7 0.00 0.00 0.00 52 1014.0
20260503174059 21 245 4.8 9.7 0.00 0.00 0.00 50 1013.9